QPF
0.00 0.00 0.00 0.00 0.00 0.00 0.00 0.00 0.00 0.00 0.01 0.03 0.02 0.05 0.10 0.06 0.07 0.04 0.01 0.05 0.02 0.02 0.01 0.00 0.00 0.00 0.00 0.00 0.00 0.00 0.00 0.00 0.00 0.00 0.00 0.00 0.00 0.00 0.00 0.00 0.00 0.00 0.00 0.00 0.00 0.00 0.00 0.00 0.00
0.00 0.00 0.00 0.00 0.00 0.00 0.00 0.00 0.00 0.00 0.01 0.03 0.04 0.18 0.17 0.10 0.04 0.17 0.08 0.05 0.03 0.03 0.02 0.02 0.02 0.00 0.00 0.00 0.00 0.00 0.00 0.00 0.00 0.00 0.00 0.00 0.00 0.00 0.00 0.00 0.00 0.00 0.00 0.00 0.00 0.00 0.00 0.00 0.00
0.00 0.00 0.00 0.00 0.00 0.00 0.00 0.00 0.00 0.00 0.02 0.01 0.04 0.17 0.24 0.19 0.07 0.07 0.09 0.08 0.06 0.12 0.06 0.06 0.14 0.01 0.00 0.00 0.00 0.00 0.00 0.00 0.00 0.00 0.00 0.00 0.00 0.00 0.00 0.00 0.00 0.00 0.00 0.00 0.00 0.00 0.00 0.00 0.00
0.00 0.00 0.00 0.00 0.00 0.00 0.00 0.00 0.00 0.00 0.00 0.00 0.01 0.04 0.09 0.02 0.01 0.05 0.09 0.37 0.31 0.19 0.12 0.12 0.17 0.01 0.00 0.00 0.00 0.00 0.00 0.00 0.00 0.00 0.00 0.00 0.00 0.00 0.00 0.00 0.00 0.00 0.00 0.00 0.00 0.00 0.00 0.00 0.00
0.00 0.00 0.00 0.00 0.00 0.00 0.00 0.00 0.00 0.00 0.00 0.00 0.00 0.03 0.06 0.05 0.04 0.05 0.11 0.26 0.43 0.48 0.39 0.15 0.29 0.06 0.01 0.00 0.00 0.00 0.00 0.00 0.00 0.00 0.00 0.00 0.00 0.00 0.00 0.00 0.00 0.00 0.00 0.00 0.00 0.00 0.00 0.00 0.00
0.00 0.00 0.00 0.00 0.00 0.00 0.00 0.00 0.00 0.00 0.00 0.00 0.00 0.00 0.03 0.02 0.02 0.06 0.17 0.13 0.09 0.10 0.27 0.50 0.87 0.90 0.55 0.05 0.00 0.00 0.00 0.00 0.00 0.00 0.00 0.00 0.00 0.00 0.00 0.00 0.00 0.00 0.00 0.00 0.00 0.00 0.00 0.00 0.00
0.00 0.00 0.00 0.00 0.00 0.00 0.00 0.00 0.00 0.00 0.01 0.00 0.01 0.00 0.01 0.02 0.02 0.01 0.04 0.06 0.16 0.26 0.29 2.48 2.40 1.63 0.93 0.24 0.01 0.00 0.00 0.00 0.00 0.00 0.00 0.00 0.00 0.00 0.00 0.00 0.00 0.00 0.00 0.00 0.00 0.00 0.00 0.00 0.00
0.00 0.00 0.00 0.00 0.00 0.00 0.00 0.00 0.00 0.02 0.02 0.01 0.00 0.00 0.00 0.02 0.02 0.02 0.01 0.00 0.01 0.07 0.09 0.41 0.92 0.79 0.44 0.20 0.03 0.00 0.00 0.00 0.00 0.00 0.00 0.00 0.00 0.00 0.00 0.00 0.00 0.00 0.00 0.00 0.00 0.00 0.00 0.00 0.00
0.00 0.00 0.00 0.00 0.00 0.00 0.00 0.00 0.00 0.00 0.00 0.00 0.00 0.00 0.00 0.00 0.00 0.00 0.00 0.00 0.00 0.00 0.00 0.02 0.09 0.13 0.14 0.09 0.05 0.04 0.01 0.00 0.00 0.00 0.00 0.00 0.00 0.00 0.00 0.00 0.00 0.00 0.00 0.00 0.00 0.00 0.00 0.00 0.00
0.00 0.00 0.00 0.00 0.00 0.00 0.00 0.00 0.00 0.00 0.00 0.00 0.00 0.01 0.00 0.00 0.00 0.00 0.01 0.00 0.00 0.00 0.00 0.00 0.00 0.00 0.00 0.02 0.05 0.06 0.01 0.00 0.00 0.00 0.00 0.00 0.00 0.00 0.00 0.00 0.00 0.00 0.00 0.00 0.00 0.00 0.00 0.00 0.00
0.00 0.00 0.00 0.00 0.00 0.00 0.00 0.00 0.00 0.00 0.00 0.00 0.00 0.01 0.01 0.01 0.00 0.00 0.01 0.01 0.01 0.00 0.00 0.00 0.00 0.00 0.00 0.00 0.00 0.00 0.00 0.00 0.00 0.00 0.00 0.00 0.00 0.00 0.00 0.00 0.00 0.00 0.00 0.00 0.00 0.00 0.00 0.00 0.00
0.00 0.00 0.00 0.00 0.00 0.00 0.00 0.00 0.00 0.00 0.00 0.00 0.00 0.01 0.04 0.02 0.00 0.00 0.00 0.00 0.00 0.00 0.00 0.00 0.01 0.00 0.00 0.00 0.00 0.00 0.00 0.00 0.00 0.00 0.00 0.00 0.00 0.00 0.00 0.00 0.00 0.00 0.00 0.00 0.00 0.00 0.00 0.00 0.00
0.00 0.00 0.00 0.00 0.00 0.00 0.00 0.00 0.01 0.00 0.00 0.00 0.00 0.01 0.05 0.05 0.01 0.00 0.01 0.04 0.04 0.00 0.00 0.00 0.00 0.00 0.00 0.00 0.00 0.00 0.00 0.00 0.00 0.00 0.00 0.00 0.00 0.00 0.00 0.00 0.00 0.00 0.00 0.00 0.00 0.00 0.00 0.00 0.00
0.00 0.00 0.00 0.00 0.00 0.00 0.00 0.01 0.00 0.00 0.00 0.00 0.00 0.00 0.01 0.02 0.02 0.00 0.00 0.01 0.00 0.00 0.00 0.00 0.00 0.00 0.00 0.00 0.00 0.00 0.00 0.00 0.00 0.00 0.00 0.00 0.00 0.00 0.00 0.00 0.00 0.00 0.00 0.00 0.00 0.00 0.00 0.00 0.00
0.00 0.00 0.00 0.00 0.00 0.00 0.01 0.00 0.00 0.00 0.00 0.00 0.00 0.00 0.00 0.00 0.00 0.00 0.00 0.00 0.00 0.00 0.00 0.00 0.00 0.00 0.00 0.00 0.00 0.00 0.00 0.00 0.00 0.00 0.01 0.01 0.00 0.01 0.02 0.01 0.00 0.00 0.00 0.00 0.00 0.00 0.00 0.00 0.00
0.00 0.00 0.00 0.00 0.00 0.00 0.01 0.00 0.00 0.00 0.00 0.00 0.00 0.00 0.00 0.00 0.00 0.00 0.00 0.00 0.00 0.00 0.00 0.00 0.00 0.00 0.00 0.00 0.00 0.00 0.00 0.00 0.00 0.00 0.04 0.09 0.05 0.06 0.03 0.01 0.00 0.00 0.00 0.00 0.00 0.00 0.00 0.00 0.00
0.00 0.00 0.00 0.00 0.00 0.00 0.00 0.00 0.00 0.00 0.00 0.00 0.00 0.00 0.00 0.00 0.00 0.00 0.00 0.00 0.00 0.00 0.00 0.00 0.00 0.00 0.00 0.00 0.00 0.00 0.00 0.00 0.00 0.00 0.02 0.07 0.06 0.05 0.02 0.01 0.00 0.00 0.00 0.00 0.00 0.00 0.00 0.00 0.00
0.00 0.00 0.00 0.00 0.00 0.00 0.00 0.00 0.00 0.00 0.00 0.00 0.00 0.00 0.00 0.00 0.00 0.00 0.00 0.00 0.00 0.00 0.00 0.00 0.00 0.00 0.00 0.00 0.00 0.00 0.00 0.00 0.00 0.01 0.05 0.05 0.02 0.01 0.00 0.00 0.00 0.00 0.00 0.00 0.00 0.00 0.00 0.00 0.00
0.00 0.00 0.00 0.00 0.00 0.00 0.00 0.00 0.00 0.00 0.00 0.00 0.00 0.00 0.00 0.00 0.00 0.00 0.00 0.00 0.00 0.00 0.00 0.00 0.00 0.00 0.00 0.00 0.00 0.00 0.00 0.00 0.02 0.07 0.08 0.04 0.02 0.00 0.00 0.00 0.00 0.00 0.00 0.00 0.00 0.00 0.00 0.00 0.00
0.00 0.00 0.00 0.00 0.00 0.00 0.00 0.00 0.00 0.00 0.00 0.00 0.00 0.00 0.00 0.00 0.00 0.00 0.00 0.00 0.00 0.00 0.00 0.00 0.00 0.00 0.00 0.00 0.00 0.00 0.00 0.00 0.01 0.07 0.07 0.03 0.00 0.00 0.00 0.00 0.00 0.00 0.00 0.00 0.00 0.00 0.00 0.00 0.00
0.00 0.00 0.00 0.00 0.00 0.00 0.00 0.00 0.00 0.00 0.00 0.00 0.00 0.00 0.00 0.00 0.00 0.00 0.00 0.00 0.00 0.00 0.00 0.00 0.00 0.00 0.00 0.00 0.00 0.00 0.00 0.00 0.02 0.05 0.05 0.01 0.00 0.00 0.00 0.00 0.00 0.00 0.00 0.00 0.00 0.00 0.00 0.00 0.00
0.00 0.00 0.00 0.00 0.00 0.00 0.00 0.00 0.00 0.00 0.00 0.00 0.00 0.00 0.00 0.00 0.00 0.00 0.00 0.00 0.00 0.00 0.00 0.00 0.00 0.00 0.00 0.00 0.00 0.00 0.00 0.01 0.05 0.08 0.04 0.01 0.00 0.00 0.00 0.00 0.00 0.00 0.00 0.00 0.00 0.00 0.00 0.00 0.00
0.00 0.00 0.00 0.00 0.00 0.00 0.00 0.00 0.00 0.00 0.00 0.00 0.00 0.00 0.00 0.00 0.00 0.00 0.00 0.00 0.00 0.00 0.00 0.00 0.00 0.00 0.00 0.00 0.00 0.00 0.01 0.04 0.06 0.06 0.04 0.02 0.00 0.00 0.00 0.00 0.00 0.00 0.00 0.00 0.00 0.00 0.00 0.00 0.00
0.00 0.00 0.00 0.00 0.00 0.00 0.00 0.00 0.00 0.00 0.00 0.00 0.00 0.00 0.00 0.00 0.00 0.00 0.00 0.00 0.00 0.00 0.00 0.00 0.00 0.00 0.00 0.00 0.02 0.03 0.02 0.02 0.04 0.06 0.03 0.01 0.00 0.00 0.00 0.00 0.00 0.00 0.00 0.00 0.00 0.00 0.00 0.00 0.00
0.00 0.00 0.00 0.00 0.00 0.00 0.00 0.00 0.00 0.00 0.00 0.00 0.00 0.00 0.00 0.00 0.00 0.00 0.00 0.00 0.00 0.00 0.00 0.00 0.00 0.00 0.00 0.02 0.04 0.04 0.03 0.03 0.01 0.01 0.01 0.01 0.02 0.01 0.00 0.00 0.00 0.00 0.00 0.00 0.00 0.01 0.01 0.00 0.00
0.00 0.00 0.00 0.00 0.00 0.00 0.00 0.00 0.00 0.00 0.00 0.00 0.00 0.00 0.00 0.00 0.00 0.00 0.00 0.00 0.00 0.00 0.00 0.00 0.00 0.00 0.00 0.03 0.07 0.06 0.05 0.02 0.01 0.01 0.02 0.02 0.01 0.00 0.00 0.00 0.00 0.00 0.01 0.05 0.07 0.04 0.01 0.00 0.00
0.00 0.00 0.00 0.00 0.00 0.00 0.00 0.00 0.00 0.00 0.00 0.00 0.00 0.00 0.00 0.00 0.00 0.00 0.00 0.00 0.00 0.00 0.00 0.00 0.00 0.00 0.00 0.03 0.11 0.14 0.10 0.05 0.03 0.03 0.02 0.01 0.00 0.00 0.00 0.00 0.00 0.01 0.07 0.06 0.02 0.00 0.00 0.00 0.00
0.00 0.00 0.00 0.00 0.00 0.00 0.00 0.00 0.00 0.00 0.00 0.00 0.00 0.00 0.00 0.00 0.00 0.00 0.00 0.00 0.00 0.00 0.00 0.00 0.00 0.00 0.00 0.03 0.09 0.11 0.09 0.06 0.03 0.01 0.01 0.00 0.00 0.00 0.00 0.00 0.01 0.03 0.03 0.00 0.00 0.00 0.00 0.00 0.00
0.00 0.00 0.00 0.00 0.00 0.00 0.00 0.00 0.00 0.00 0.00 0.00 0.00 0.00 0.00 0.00 0.00 0.00 0.00 0.00 0.00 0.00 0.00 0.00 0.00 0.00 0.00 0.04 0.06 0.07 0.08 0.05 0.03 0.03 0.02 0.01 0.02 0.03 0.01 0.02 0.03 0.02 0.00 0.00 0.00 0.00 0.00 0.00 0.00
0.00 0.00 0.00 0.00 0.00 0.00 0.00 0.00 0.00 0.00 0.00 0.00 0.00 0.00 0.00 0.00 0.00 0.00 0.00 0.00 0.00 0.00 0.00 0.00 0.00 0.00 0.03 0.06 0.10 0.11 0.11 0.12 0.12 0.09 0.05 0.04 0.06 0.05 0.01 0.02 0.04 0.05 0.03 0.01 0.01 0.00 0.00 0.00 0.00
MSLP
1013.84 1013.88 1013.86 1013.84 1014.31 1013.70 1012.64 1012.29 1012.20 1011.66 1011.21 1011.96 1011.92 1011.93 1011.96 1012.78 1013.18 1013.62 1013.81 1014.01 1013.70 1014.11 1014.36 1015.13 1015.65 1016.01 1016.31 1016.66 1016.85 1017.21 1017.61 1018.15 1018.63 1018.99 1019.41 1019.77 1020.29 1020.58 1020.50 1020.53 1020.80 1020.71 1020.76 1021.09 1021.37 1021.89 1022.16 1022.68 1022.83
1013.88 1013.96 1013.88 1014.05 1013.82 1013.14 1012.39 1012.35 1011.99 1011.84 1011.66 1011.40 1011.92 1012.45 1012.42 1013.26 1013.57 1014.16 1013.78 1014.02 1013.90 1014.19 1014.69 1015.18 1016.08 1016.37 1016.60 1016.95 1017.19 1017.62 1018.13 1018.57 1018.77 1019.31 1019.77 1020.27 1020.68 1020.85 1020.88 1021.01 1021.16 1021.14 1021.09 1021.40 1021.85 1022.20 1022.51 1023.18 1023.19
1013.80 1013.87 1013.90 1014.02 1013.83 1012.87 1012.39 1012.25 1012.28 1012.29 1012.35 1011.99 1012.91 1013.78 1014.03 1014.14 1014.26 1013.58 1013.62 1013.76 1013.92 1014.15 1014.74 1015.51 1016.25 1016.79 1016.98 1017.29 1017.37 1017.72 1018.16 1018.47 1019.23 1019.51 1019.93 1020.58 1020.99 1021.21 1021.42 1021.38 1021.48 1021.62 1021.61 1021.65 1022.15 1022.70 1023.02 1023.57 1023.65
1013.93 1014.13 1014.81 1014.21 1013.54 1013.00 1012.43 1012.10 1012.63 1012.54 1012.32 1012.59 1013.07 1013.82 1014.34 1014.52 1013.83 1013.16 1013.25 1014.02 1013.87 1014.07 1014.71 1015.56 1016.16 1016.45 1016.92 1017.14 1017.35 1017.68 1018.10 1018.67 1019.25 1020.14 1020.15 1020.72 1021.32 1021.49 1021.77 1021.96 1021.90 1021.99 1021.94 1022.20 1022.57 1023.18 1023.43 1024.09 1024.24
1014.30 1014.49 1014.28 1013.96 1013.24 1012.53 1012.27 1012.47 1012.61 1012.60 1012.64 1012.55 1013.09 1013.77 1014.02 1014.40 1014.49 1014.49 1014.58 1014.54 1014.45 1013.19 1014.91 1015.68 1016.15 1016.64 1017.03 1017.03 1017.10 1017.40 1018.42 1018.80 1019.60 1020.40 1020.46 1021.03 1021.68 1021.89 1022.25 1022.46 1022.46 1022.46 1022.54 1022.72 1023.14 1023.55 1023.93 1024.16 1024.58
1014.20 1014.64 1014.15 1013.54 1012.88 1012.24 1012.12 1012.59 1012.71 1012.82 1012.92 1013.01 1013.21 1013.73 1014.58 1014.78 1014.93 1015.20 1015.20 1015.20 1015.46 1015.83 1016.13 1016.82 1016.42 1017.23 1018.38 1017.56 1018.08 1017.87 1018.46 1018.95 1020.12 1020.33 1020.95 1021.44 1022.15 1022.29 1022.61 1023.09 1023.10 1023.06 1023.26 1023.50 1023.82 1024.00 1024.34 1024.64 1024.86
1013.99 1014.21 1013.84 1013.40 1012.70 1012.29 1012.19 1012.50 1012.67 1012.89 1013.15 1012.95 1013.25 1013.80 1014.87 1015.05 1015.21 1015.71 1015.84 1016.10 1016.14 1016.52 1016.63 1017.18 1019.23 1017.99 1019.86 1020.29 1019.89 1018.85 1019.03 1019.96 1020.37 1020.82 1021.21 1022.11 1022.50 1022.84 1023.20 1023.37 1023.54 1023.65 1023.80 1023.92 1024.35 1024.40 1024.67 1025.08 1025.32
1014.12 1013.99 1013.61 1013.17 1012.50 1012.14 1011.97 1012.39 1012.55 1012.78 1013.25 1013.20 1013.59 1013.71 1014.74 1015.34 1015.67 1015.76 1016.23 1016.33 1016.82 1017.27 1017.29 1018.27 1017.44 1018.70 1020.23 1021.33 1020.86 1020.19 1019.91 1020.57 1021.05 1021.16 1021.60 1022.30 1022.75 1023.23 1023.61 1023.73 1024.02 1024.24 1024.27 1024.76 1024.79 1024.94 1025.14 1025.53 1025.56
1014.04 1013.86 1013.21 1012.76 1012.27 1011.77 1012.01 1012.39 1012.76 1013.01 1013.20 1013.48 1013.76 1013.89 1014.44 1015.24 1015.60 1015.88 1016.52 1016.92 1017.20 1017.88 1017.96 1018.25 1018.28 1018.86 1019.74 1020.41 1020.04 1021.12 1021.06 1020.91 1021.65 1021.62 1022.27 1022.61 1023.00 1023.37 1023.74 1023.99 1024.47 1024.71 1024.84 1024.97 1025.17 1025.20 1025.22 1025.88 1026.28
1013.54 1013.57 1012.59 1012.04 1011.60 1011.43 1011.95 1012.18 1012.47 1012.88 1013.38 1013.78 1014.12 1014.39 1014.86 1015.39 1015.73 1016.11 1016.99 1017.32 1017.54 1017.97 1018.62 1018.71 1018.69 1019.02 1019.52 1019.99 1020.80 1021.35 1020.97 1021.63 1021.59 1022.01 1022.46 1022.72 1023.20 1023.69 1023.93 1024.24 1024.67 1024.78 1025.24 1025.51 1025.63 1025.76 1026.01 1025.93 1026.18
1013.31 1012.68 1012.07 1011.52 1011.29 1011.34 1011.63 1012.16 1012.48 1012.80 1013.16 1013.40 1013.84 1014.50 1015.02 1015.52 1015.96 1016.69 1017.25 1017.77 1017.93 1018.32 1018.65 1018.81 1018.94 1019.32 1019.49 1020.01 1021.06 1021.20 1021.58 1021.62 1021.97 1022.23 1022.62 1023.18 1023.54 1024.20 1024.51 1024.75 1024.93 1025.32 1025.36 1025.32 1025.69 1025.91 1026.31 1026.54 1026.46
1012.91 1012.05 1011.80 1011.21 1011.27 1011.68 1011.68 1012.04 1012.56 1013.09 1013.16 1013.37 1013.65 1014.55 1015.06 1015.74 1016.29 1016.92 1017.39 1017.86 1018.11 1018.56 1018.61 1018.90 1019.32 1019.39 1019.73 1020.11 1020.69 1021.12 1021.07 1021.41 1021.76 1022.32 1022.64 1023.19 1023.81 1024.44 1024.78 1024.86 1025.44 1025.61 1025.71 1025.70 1026.15 1026.25 1026.42 1026.80 1026.79
1012.52 1011.69 1011.48 1011.31 1011.32 1011.61 1011.84 1012.29 1012.63 1013.25 1013.70 1013.58 1014.01 1014.91 1015.46 1016.03 1016.49 1017.11 1017.55 1017.91 1018.31 1018.62 1018.88 1019.12 1019.49 1019.73 1020.14 1020.58 1020.85 1020.75 1021.15 1021.42 1022.10 1022.46 1022.95 1023.29 1023.67 1024.36 1024.81 1025.18 1025.42 1025.45 1025.79 1025.98 1026.11 1026.30 1026.59 1026.79 1026.93
1011.70 1011.50 1011.46 1011.43 1011.62 1011.81 1012.09 1012.74 1013.00 1013.91 1014.20 1014.39 1014.55 1015.11 1015.72 1016.10 1016.46 1017.05 1017.43 1017.86 1018.33 1018.63 1019.03 1019.35 1019.70 1019.88 1019.85 1020.17 1020.56 1021.03 1021.25 1021.64 1022.29 1022.61 1022.92 1023.44 1024.03 1024.34 1024.86 1025.22 1025.22 1025.63 1026.07 1025.97 1026.17 1026.55 1026.45 1026.98 1027.14
1011.55 1011.45 1011.40 1011.55 1011.75 1011.96 1011.89 1012.62 1012.97 1013.66 1014.28 1014.74 1014.91 1015.41 1015.61 1015.99 1016.54 1016.82 1017.17 1017.77 1018.10 1018.38 1018.79 1019.12 1019.51 1019.46 1019.58 1020.09 1020.58 1020.98 1021.35 1021.81 1022.23 1022.51 1022.98 1023.52 1024.00 1024.36 1024.68 1024.99 1025.34 1025.80 1026.07 1026.39 1026.59 1026.72 1026.92 1027.02 1027.28
1011.54 1011.53 1011.40 1011.51 1011.50 1011.88 1012.21 1012.13 1013.08 1013.80 1014.21 1014.53 1014.91 1015.20 1015.37 1015.58 1016.07 1016.70 1017.25 1017.66 1018.10 1018.27 1018.63 1019.08 1019.40 1019.73 1019.94 1020.23 1020.56 1020.90 1021.25 1021.83 1022.16 1022.47 1023.03 1023.54 1023.88 1024.18 1024.63 1025.06 1025.48 1026.04 1026.09 1026.17 1026.71 1026.59 1026.76 1027.20 1027.11
1011.76 1011.34 1011.13 1011.06 1011.31 1011.51 1012.04 1012.04 1012.79 1013.86 1014.02 1014.26 1014.74 1014.72 1015.09 1015.71 1016.00 1016.42 1016.89 1017.30 1017.59 1018.14 1018.51 1018.90 1019.40 1019.62 1019.93 1020.31 1020.68 1021.17 1021.60 1022.04 1022.21 1022.54 1022.98 1023.40 1023.77 1024.30 1024.48 1024.84 1025.29 1025.85 1026.03 1026.12 1026.30 1026.97 1026.57 1026.94 1027.19
1011.62 1011.53 1011.20 1010.83 1011.04 1011.30 1011.56 1011.82 1012.67 1013.51 1013.90 1013.95 1014.25 1014.47 1014.56 1015.06 1015.32 1015.87 1016.57 1017.02 1017.38 1017.94 1018.45 1018.77 1019.14 1019.42 1019.75 1020.41 1021.01 1021.41 1021.82 1021.94 1022.30 1022.40 1022.99 1023.26 1023.67 1024.05 1024.45 1024.66 1025.36 1025.46 1025.76 1026.07 1026.48 1026.72 1027.07 1027.24 1027.46
1011.58 1011.55 1011.19 1010.86 1010.80 1011.06 1011.10 1011.51 1012.05 1012.98 1013.64 1013.63 1013.67 1014.01 1014.07 1014.01 1014.74 1015.44 1015.93 1016.45 1016.95 1017.48 1018.01 1018.32 1018.77 1019.28 1019.83 1020.61 1021.17 1021.49 1021.74 1021.83 1022.26 1022.56 1022.75 1023.22 1023.53 1023.80 1024.01 1024.76 1025.13 1025.39 1025.50 1025.85 1026.48 1026.98 1027.21 1027.46 1027.79
1011.32 1011.27 1011.11 1010.94 1010.92 1011.13 1011.03 1010.90 1011.54 1012.22 1012.15 1012.45 1012.65 1013.01 1013.22 1013.58 1014.08 1014.80 1015.22 1015.88 1016.16 1016.52 1017.09 1017.81 1018.25 1018.92 1019.35 1019.75 1020.26 1020.57 1021.10 1021.69 1021.80 1022.39 1022.71 1022.93 1023.24 1023.56 1024.01 1024.54 1024.74 1025.10 1025.51 1026.10 1026.68 1026.84 1027.20 1027.66 1027.99
1011.08 1010.89 1011.19 1011.16 1011.05 1011.08 1010.75 1010.76 1011.06 1011.92 1012.28 1012.59 1012.43 1012.44 1012.79 1012.91 1013.41 1014.05 1014.62 1014.98 1015.59 1016.00 1016.32 1016.78 1017.48 1018.26 1019.00 1019.45 1019.94 1020.48 1021.14 1021.69 1021.97 1022.27 1022.64 1022.86 1023.32 1023.52 1024.01 1024.28 1024.56 1025.05 1025.45 1025.94 1026.39 1026.62 1026.84 1027.12 1027.75
1010.90 1010.56 1010.79 1010.82 1011.05 1011.15 1011.21 1011.09 1010.77 1010.92 1011.37 1011.65 1011.64 1011.87 1011.95 1012.41 1012.74 1013.17 1013.68 1014.08 1014.61 1015.04 1015.84 1016.31 1016.97 1017.74 1018.42 1018.97 1019.32 1019.73 1020.15 1020.60 1021.06 1021.84 1022.28 1022.64 1023.36 1023.55 1023.74 1024.12 1024.46 1025.01 1025.48 1025.89 1026.31 1026.62 1026.78 1027.03 1027.40
1010.76 1010.74 1010.82 1011.11 1011.38 1011.49 1011.62 1011.44 1010.38 1010.48 1010.22 1010.05 1010.17 1010.42 1010.72 1011.03 1011.61 1011.97 1012.34 1013.01 1013.87 1014.75 1015.42 1016.13 1016.70 1017.16 1017.76 1018.39 1018.87 1019.33 1019.78 1020.27 1020.99 1021.64 1022.10 1022.68 1023.17 1023.30 1023.47 1023.87 1024.51 1024.94 1025.31 1025.88 1026.31 1027.00 1027.26 1027.39 1027.12
1010.52 1011.01 1011.35 1011.75 1011.87 1011.91 1011.32 1011.10 1010.08 1009.68 1009.24 1009.06 1009.06 1009.52 1009.78 1010.08 1010.66 1011.11 1011.86 1012.60 1013.03 1014.00 1014.72 1015.38 1016.01 1016.46 1017.19 1017.99 1018.63 1019.24 1019.68 1020.25 1020.75 1021.31 1021.87 1022.34 1022.70 1023.11 1023.42 1023.77 1024.18 1024.61 1025.21 1025.59 1026.12 1026.93 1027.62 1027.66 1027.29
1010.84 1011.10 1011.69 1012.10 1012.22 1012.00 1011.65 1011.18 1009.49 1008.95 1008.73 1008.50 1008.40 1008.47 1008.80 1009.26 1009.95 1010.35 1010.96 1011.71 1012.40 1013.04 1013.73 1014.50 1015.10 1015.49 1016.50 1017.36 1018.11 1018.77 1019.23 1019.68 1020.11 1020.59 1021.04 1021.55 1022.26 1022.78 1023.01 1023.49 1023.99 1024.55 1025.29 1026.02 1026.74 1027.29 1027.93 1027.99 1027.61
1010.52 1010.92 1011.50 1011.98 1012.50 1012.28 1011.79 1010.65 1008.88 1008.56 1008.41 1008.30 1008.27 1008.24 1008.46 1008.72 1008.98 1009.44 1009.76 1010.51 1011.25 1012.04 1012.98 1013.72 1014.19 1014.85 1015.78 1016.54 1017.12 1017.89 1018.45 1018.85 1019.44 1020.00 1020.51 1021.10 1021.45 1021.89 1022.60 1023.25 1023.80 1024.35 1025.01 1025.71 1026.61 1027.32 1027.55 1027.27 1027.13
1010.52 1011.10 1011.60 1012.33 1013.40 1012.69 1011.57 1010.39 1009.10 1008.45 1008.21 1008.20 1008.04 1007.84 1008.04 1008.56 1008.85 1009.06 1009.54 1010.08 1010.65 1011.34 1011.99 1012.70 1013.50 1014.28 1014.98 1015.68 1016.41 1017.13 1017.66 1018.37 1018.84 1019.44 1020.04 1020.60 1021.19 1021.78 1022.60 1023.08 1023.63 1024.49 1024.95 1025.40 1025.85 1026.37 1026.78 1026.83 1026.84
1010.29 1010.81 1011.71 1012.23 1012.83 1012.57 1011.69 1010.79 1009.51 1008.68 1008.43 1008.35 1008.23 1008.18 1008.10 1008.40 1008.87 1009.13 1009.44 1009.93 1010.39 1011.07 1011.83 1012.67 1013.27 1013.75 1014.43 1015.24 1015.91 1016.55 1017.23 1017.83 1018.38 1018.93 1019.61 1020.47 1021.28 1021.86 1022.48 1022.97 1023.40 1024.21 1024.93 1025.44 1025.84 1026.29 1026.44 1026.61 1026.47
1010.73 1011.03 1011.69 1012.19 1012.60 1012.41 1011.87 1010.44 1009.13 1008.71 1008.60 1008.56 1008.54 1008.51 1008.43 1008.28 1008.51 1008.93 1009.32 1009.81 1010.33 1011.05 1011.73 1012.27 1012.86 1013.47 1014.05 1014.73 1015.40 1016.06 1016.75 1017.40 1018.00 1018.49 1019.29 1020.18 1020.78 1021.54 1022.69 1023.36 1024.23 1025.06 1024.97 1025.35 1025.76 1025.84 1025.87 1026.21 1026.17
1009.71 1010.09 1010.88 1011.85 1012.66 1012.73 1011.98 1010.25 1008.69 1008.58 1008.77 1008.85 1008.44 1008.46 1008.48 1008.39 1008.43 1008.72 1009.21 1009.71 1010.16 1010.67 1011.24 1011.81 1012.62 1013.13 1013.69 1014.46 1015.08 1015.79 1016.48 1017.14 1017.75 1018.30 1018.91 1019.76 1020.47 1021.26 1021.98 1022.90 1023.72 1023.95 1024.71 1025.02 1025.19 1025.17 1025.24 1025.64 1025.61
Thickness
5673 5670 5668 5663 5647 5644 5645 5656 5660 5670 5681 5681 5688 5690 5692 5686 5683 5685 5700 5701 5708 5708 5707 5702 5698 5696 5695 5692 5691 5689 5686 5681 5678 5675 5674 5672 5669 5667 5669 5669 5665 5667 5667 5665 5664 5659 5657 5651 5650
5665 5663 5660 5647 5639 5636 5650 5652 5660 5669 5677 5688 5685 5682 5685 5678 5686 5684 5691 5696 5700 5702 5699 5697 5691 5688 5686 5683 5682 5680 5676 5672 5672 5668 5665 5663 5662 5662 5662 5661 5660 5661 5662 5660 5656 5654 5652 5645 5646
5661 5658 5649 5638 5624 5637 5643 5653 5658 5665 5668 5679 5671 5664 5662 5656 5674 5687 5691 5686 5694 5697 5694 5688 5681 5676 5675 5675 5676 5674 5670 5668 5663 5662 5660 5657 5655 5653 5653 5654 5654 5653 5655 5656 5652 5648 5645 5640 5640
5654 5650 5636 5630 5627 5641 5648 5658 5654 5658 5668 5672 5669 5657 5659 5668 5679 5691 5696 5688 5691 5690 5687 5679 5675 5675 5671 5671 5671 5669 5665 5661 5656 5653 5655 5653 5648 5647 5646 5645 5646 5646 5649 5648 5645 5640 5639 5633 5632
5647 5636 5626 5624 5632 5646 5653 5654 5655 5656 5660 5667 5666 5653 5662 5666 5673 5678 5679 5681 5679 5669 5676 5673 5670 5668 5665 5665 5666 5665 5657 5654 5647 5644 5647 5645 5641 5639 5636 5635 5638 5639 5641 5640 5637 5633 5631 5631 5627
5638 5629 5622 5624 5632 5648 5655 5652 5654 5653 5657 5659 5659 5657 5655 5663 5666 5667 5670 5671 5670 5665 5665 5657 5659 5651 5643 5644 5648 5654 5652 5648 5639 5640 5637 5635 5630 5631 5629 5626 5628 5631 5631 5630 5627 5628 5625 5623 5621
5634 5626 5622 5625 5633 5642 5650 5653 5652 5654 5654 5660 5663 5654 5652 5655 5660 5659 5661 5661 5657 5655 5656 5652 5631 5639 5625 5608 5625 5638 5639 5632 5632 5632 5631 5623 5622 5622 5619 5620 5622 5623 5623 5624 5622 5622 5620 5615 5612
5632 5629 5622 5627 5632 5640 5654 5651 5656 5657 5655 5662 5661 5657 5650 5652 5652 5655 5653 5654 5648 5645 5645 5639 5639 5629 5625 5611 5607 5621 5626 5622 5622 5624 5621 5618 5616 5613 5612 5614 5615 5615 5617 5614 5615 5614 5612 5607 5607
5632 5625 5620 5626 5633 5647 5652 5650 5652 5656 5654 5655 5657 5660 5659 5652 5650 5651 5646 5645 5642 5637 5637 5636 5638 5632 5624 5618 5619 5607 5612 5618 5615 5615 5612 5611 5610 5609 5608 5610 5607 5607 5609 5609 5609 5609 5609 5600 5597
5633 5622 5629 5642 5650 5650 5649 5652 5652 5651 5648 5647 5649 5653 5653 5648 5647 5644 5637 5635 5634 5632 5628 5628 5629 5627 5625 5619 5613 5609 5611 5609 5612 5609 5607 5608 5607 5605 5607 5608 5605 5606 5601 5601 5601 5599 5597 5598 5594
5627 5631 5640 5648 5654 5656 5655 5652 5654 5651 5648 5651 5648 5646 5645 5644 5640 5633 5628 5625 5623 5624 5625 5624 5620 5617 5618 5614 5607 5607 5605 5607 5606 5606 5603 5603 5604 5600 5601 5601 5600 5597 5601 5600 5596 5594 5590 5588 5587
5628 5641 5643 5653 5653 5649 5652 5656 5651 5650 5652 5653 5651 5644 5641 5635 5630 5625 5622 5619 5615 5612 5620 5618 5614 5614 5612 5610 5605 5601 5603 5604 5603 5602 5604 5604 5600 5597 5596 5598 5593 5594 5593 5594 5588 5588 5588 5582 5583
5630 5643 5648 5650 5653 5652 5655 5651 5649 5644 5646 5650 5646 5638 5633 5627 5624 5618 5616 5614 5610 5609 5610 5611 5608 5607 5605 5599 5596 5600 5601 5603 5602 5603 5602 5603 5604 5598 5593 5593 5591 5591 5587 5588 5587 5583 5580 5579 5577
5643 5644 5645 5646 5647 5649 5649 5644 5647 5638 5641 5638 5637 5633 5627 5623 5618 5613 5611 5610 5608 5607 5605 5604 5602 5602 5602 5601 5601 5602 5607 5606 5602 5602 5602 5599 5596 5598 5591 5589 5589 5587 5582 5585 5582 5576 5578 5572 5570
5644 5639 5643 5644 5644 5644 5651 5641 5644 5641 5637 5630 5629 5626 5623 5619 5616 5614 5613 5608 5606 5607 5607 5606 5603 5603 5606 5605 5604 5606 5607 5606 5602 5602 5601 5597 5594 5593 5589 5588 5587 5583 5580 5578 5575 5573 5570 5566 5562
5637 5635 5632 5639 5644 5642 5644 5640 5638 5637 5635 5633 5629 5628 5628 5625 5621 5616 5615 5610 5608 5609 5609 5606 5604 5603 5605 5606 5607 5609 5610 5605 5603 5603 5597 5594 5594 5594 5589 5586 5581 5578 5577 5577 5570 5569 5565 5558 5556
5628 5628 5631 5638 5643 5642 5641 5641 5639 5633 5635 5634 5631 5633 5629 5623 5622 5621 5618 5615 5615 5612 5611 5610 5607 5608 5609 5608 5610 5607 5605 5600 5601 5599 5596 5594 5593 5589 5589 5584 5582 5576 5573 5570 5568 5560 5560 5553 5547
5623 5622 5628 5634 5642 5639 5639 5643 5637 5632 5633 5636 5634 5633 5633 5628 5628 5626 5622 5621 5620 5616 5614 5614 5613 5613 5613 5608 5604 5601 5598 5600 5598 5598 5592 5592 5591 5589 5585 5584 5578 5574 5571 5566 5559 5554 5547 5541 5536
5627 5623 5626 5634 5644 5640 5642 5643 5641 5635 5633 5634 5637 5636 5636 5639 5638 5632 5629 5627 5623 5620 5617 5617 5616 5613 5609 5603 5599 5598 5597 5599 5595 5593 5592 5591 5588 5587 5586 5577 5575 5570 5566 5560 5550 5542 5537 5531 5523
5628 5626 5628 5635 5639 5637 5636 5645 5644 5638 5643 5645 5644 5642 5643 5643 5641 5636 5634 5630 5630 5628 5624 5620 5618 5614 5612 5609 5605 5604 5601 5596 5595 5591 5590 5588 5587 5584 5579 5575 5571 5565 5557 5549 5540 5535 5527 5520 5514
5630 5629 5624 5628 5633 5635 5640 5643 5645 5641 5643 5643 5647 5649 5648 5647 5644 5640 5637 5636 5634 5632 5631 5628 5625 5619 5613 5610 5606 5603 5597 5594 5593 5591 5587 5585 5580 5577 5573 5569 5564 5556 5549 5540 5532 5526 5520 5515 5504
5622 5638 5633 5631 5631 5626 5636 5627 5640 5645 5644 5646 5650 5649 5650 5648 5649 5649 5645 5644 5642 5641 5635 5633 5628 5622 5617 5612 5610 5606 5604 5601 5596 5588 5585 5580 5573 5571 5568 5563 5556 5547 5539 5532 5524 5517 5510 5504 5497
5630 5634 5635 5630 5625 5626 5623 5628 5648 5643 5649 5656 5661 5662 5661 5660 5657 5655 5655 5652 5647 5641 5635 5632 5628 5625 5620 5614 5610 5606 5602 5598 5591 5586 5581 5574 5569 5567 5561 5555 5547 5539 5531 5523 5515 5505 5497 5491 5488
5635 5628 5624 5620 5618 5614 5625 5629 5643 5650 5655 5660 5668 5668 5666 5665 5661 5659 5656 5652 5650 5643 5637 5632 5628 5626 5621 5614 5608 5603 5599 5593 5588 5583 5577 5572 5567 5560 5553 5547 5540 5533 5524 5516 5508 5496 5485 5477 5475
5628 5624 5611 5608 5607 5612 5619 5620 5646 5655 5660 5666 5670 5672 5672 5670 5664 5661 5658 5653 5650 5645 5640 5636 5633 5630 5622 5615 5609 5602 5597 5592 5589 5583 5577 5571 5562 5553 5547 5539 5532 5524 5514 5503 5494 5485 5473 5466 5462
5627 5627 5613 5602 5604 5613 5615 5621 5652 5658 5662 5663 5666 5668 5670 5671 5672 5669 5667 5662 5657 5650 5645 5640 5638 5633 5625 5618 5611 5604 5597 5592 5587 5581 5575 5566 5560 5551 5541 5532 5525 5515 5505 5497 5487 5476 5469 5464 5456
5624 5620 5622 5601 5586 5599 5616 5631 5651 5653 5659 5660 5665 5670 5670 5667 5669 5669 5666 5663 5660 5653 5650 5645 5640 5634 5627 5620 5613 5605 5596 5587 5584 5577 5569 5562 5553 5543 5533 5526 5516 5504 5497 5489 5482 5471 5461 5454 5444
5629 5628 5613 5605 5596 5596 5609 5611 5630 5645 5650 5654 5659 5663 5667 5666 5662 5663 5663 5661 5659 5654 5648 5642 5638 5633 5626 5618 5611 5603 5594 5587 5581 5574 5565 5553 5543 5534 5525 5518 5509 5498 5488 5476 5467 5458 5449 5439 5433
5616 5614 5608 5611 5603 5603 5597 5618 5637 5644 5648 5649 5652 5655 5660 5663 5663 5661 5661 5660 5657 5651 5645 5640 5635 5629 5622 5615 5608 5600 5591 5583 5575 5567 5559 5548 5540 5531 5516 5505 5493 5482 5476 5465 5454 5445 5438 5428 5420
5626 5626 5620 5605 5599 5587 5589 5611 5643 5643 5640 5640 5649 5652 5655 5659 5662 5661 5657 5655 5652 5648 5643 5638 5630 5625 5618 5610 5603 5594 5586 5577 5568 5560 5554 5545 5535 5523 5512 5499 5487 5480 5467 5456 5445 5437 5430 5418 5410